TimeEDT,TemperatureF,Dew PointF,Humidity,Sea Level PressureIn,VisibilityMPH,Wind Direction,Wind SpeedMPH,Gust SpeedMPH,PrecipitationIn,Events,Conditions,WindDirDegrees,DateUTC
12:15 AM,59.5,50.4,72,29.96,10.0,Calm,Calm,-,N/A,,Clear,0,2013-09-14 04:15:00
12:35 AM,57.0,50.4,78,29.96,10.0,Calm,Calm,-,N/A,,Clear,0,2013-09-14 04:35:00
12:55 AM,54.1,50.4,87,29.96,10.0,ENE,4.6,-,N/A,,Clear,70,2013-09-14 04:55:00
1:15 AM,55.0,51.1,86,29.97,10.0,Calm,Calm,-,N/A,,Clear,0,2013-09-14 05:15:00
1:35 AM,51.6,49.8,94,29.96,10.0,Calm,Calm,-,N/A,,Clear,0,2013-09-14 05:35:00
1:55 AM,50.4,49.5,97,29.97,10.0,Calm,Calm,-,N/A,,Clear,0,2013-09-14 05:55:00
2:15 AM,50.2,49.3,97,29.97,10.0,Calm,Calm,-,N/A,,Clear,0,2013-09-14 06:15:00
2:35 AM,50.2,49.3,97,29.97,10.0,Calm,Calm,-,N/A,,Clear,0,2013-09-14 06:35:00
2:55 AM,50.0,49.1,97,29.97,10.0,Calm,Calm,-,N/A,,Scattered Clouds,0,2013-09-14 06:55:00
3:15 AM,50.7,49.6,96,29.98,10.0,Calm,Calm,-,N/A,,Scattered Clouds,0,2013-09-14 07:15:00
3:35 AM,53.2,49.6,88,29.97,10.0,NNE,3.5,-,N/A,,Clear,20,2013-09-14 07:35:00
3:55 AM,54.0,49.3,84,29.98,10.0,Calm,Calm,-,N/A,,Clear,0,2013-09-14 07:55:00
4:15 AM,53.2,49.1,86,29.98,10.0,Calm,Calm,-,N/A,,Clear,0,2013-09-14 08:15:00
4:35 AM,51.8,48.9,90,29.99,10.0,Calm,Calm,-,N/A,,Clear,0,2013-09-14 08:35:00
4:55 AM,49.6,48.0,94,29.99,10.0,Calm,Calm,-,N/A,,Clear,0,2013-09-14 08:55:00
5:15 AM,48.7,47.8,97,30.01,10.0,Calm,Calm,-,N/A,,Clear,0,2013-09-14 09:15:00
5:35 AM,48.4,47.8,98,30.01,7.0,Calm,Calm,-,N/A,,Scattered Clouds,0,2013-09-14 09:35:00
5:55 AM,48.2,48.0,99,30.02,7.0,Calm,Calm,-,N/A,,Mostly Cloudy,0,2013-09-14 09:55:00
6:15 AM,47.7,47.5,99,30.03,7.0,Calm,Calm,-,N/A,,Scattered Clouds,0,2013-09-14 10:15:00
6:35 AM,47.5,47.3,99,30.03,10.0,Calm,Calm,-,N/A,,Clear,0,2013-09-14 10:35:00
6:55 AM,48.0,47.7,99,30.04,10.0,Calm,Calm,-,N/A,,Clear,0,2013-09-14 10:55:00
7:15 AM,47.3,46.9,99,30.05,7.0,Calm,Calm,-,N/A,,Clear,0,2013-09-14 11:15:00
7:35 AM,47.5,47.5,100,30.06,7.0,Calm,Calm,-,N/A,,Clear,0,2013-09-14 11:35:00
7:55 AM,49.5,49.5,100,30.07,7.0,Calm,Calm,-,N/A,,Clear,0,2013-09-14 11:55:00
8:15 AM,53.4,52.7,97,30.08,10.0,Calm,Calm,-,N/A,,Clear,0,2013-09-14 12:15:00
8:35 AM,57.0,52.0,83,30.08,10.0,NNE,3.5,-,N/A,,Clear,30,2013-09-14 12:35:00
8:55 AM,58.6,51.8,78,30.09,10.0,NNE,3.5,-,N/A,,Clear,30,2013-09-14 12:55:00
9:15 AM,59.9,51.4,74,30.10,10.0,NNE,6.9,-,N/A,,Clear,30,2013-09-14 13:15:00
9:35 AM,60.8,50.9,70,30.10,10.0,NNE,6.9,-,N/A,,Clear,30,2013-09-14 13:35:00
9:55 AM,61.9,51.1,68,30.10,10.0,NE,6.9,-,N/A,,Clear,50,2013-09-14 13:55:00
10:15 AM,63.5,51.4,65,30.11,10.0,NE,4.6,-,N/A,,Clear,40,2013-09-14 14:15:00
10:35 AM,63.9,50.2,61,30.11,10.0,NE,5.8,-,N/A,,Clear,50,2013-09-14 14:35:00
10:55 AM,64.8,50.7,60,30.11,10.0,North,6.9,-,N/A,,Clear,360,2013-09-14 14:55:00
11:15 AM,64.8,50.9,61,30.11,10.0,NE,4.6,-,N/A,,Clear,50,2013-09-14 15:15:00
11:35 AM,65.3,50.5,59,30.10,10.0,East,3.5,-,N/A,,Clear,90,2013-09-14 15:35:00
11:55 AM,66.4,49.1,54,30.11,10.0,ENE,4.6,-,N/A,,Clear,60,2013-09-14 15:55:00
12:15 PM,67.8,49.3,51,30.11,7.0,East,4.6,-,N/A,,Clear,80,2013-09-14 16:15:00
12:35 PM,68.4,50.7,53,30.10,10.0,ENE,6.9,-,N/A,,Clear,60,2013-09-14 16:35:00
12:55 PM,68.7,50.0,51,30.10,10.0,East,4.6,-,N/A,,Clear,80,2013-09-14 16:55:00
1:15 PM,69.8,50.0,49,30.09,10.0,North,4.6,-,N/A,,Clear,360,2013-09-14 17:15:00
1:35 PM,70.0,49.3,48,30.09,10.0,WNW,3.5,-,N/A,,Clear,300,2013-09-14 17:35:00
1:55 PM,70.2,49.8,48,30.08,10.0,NE,3.5,-,N/A,,Clear,50,2013-09-14 17:55:00
2:15 PM,70.5,48.9,46,30.08,10.0,Calm,Calm,-,N/A,,Clear,0,2013-09-14 18:15:00
2:35 PM,71.6,50.4,47,30.07,10.0,Calm,Calm,-,N/A,,Clear,0,2013-09-14 18:35:00
2:55 PM,72.0,50.5,47,30.07,10.0,Calm,Calm,-,N/A,,Clear,0,2013-09-14 18:55:00
3:15 PM,71.4,50.2,47,30.07,10.0,Calm,Calm,-,N/A,,Scattered Clouds,0,2013-09-14 19:15:00
3:35 PM,72.7,51.8,48,30.07,10.0,Calm,Calm,-,N/A,,Scattered Clouds,0,2013-09-14 19:35:00
3:55 PM,70.9,52.2,51,30.07,10.0,Calm,Calm,-,N/A,,Scattered Clouds,0,2013-09-14 19:55:00
4:15 PM,70.3,53.2,55,30.06,10.0,Calm,Calm,-,N/A,,Scattered Clouds,0,2013-09-14 20:15:00
4:35 PM,72.7,50.5,46,30.07,10.0,Calm,Calm,-,N/A,,Clear,0,2013-09-14 20:35:00
4:55 PM,70.9,52.3,52,30.07,10.0,Calm,Calm,-,N/A,,Clear,0,2013-09-14 20:55:00
5:15 PM,69.3,53.8,58,30.07,10.0,Calm,Calm,-,N/A,,Clear,0,2013-09-14 21:15:00
5:35 PM,72.7,51.6,47,30.08,10.0,Calm,Calm,-,N/A,,Clear,0,2013-09-14 21:35:00
5:55 PM,72.7,52.3,49,30.08,10.0,Calm,Calm,-,N/A,,Clear,0,2013-09-14 21:55:00
6:15 PM,72.5,53.1,50,30.08,10.0,Calm,Calm,-,N/A,,Clear,0,2013-09-14 22:15:00
6:35 PM,69.8,58.3,67,30.08,10.0,Calm,Calm,-,N/A,,Clear,0,2013-09-14 22:35:00
6:55 PM,64.9,59.7,83,30.08,10.0,Calm,Calm,-,N/A,,Clear,0,2013-09-14 22:55:00
7:15 PM,62.2,58.8,89,30.08,10.0,Calm,Calm,-,N/A,,Clear,0,2013-09-14 23:15:00
7:35 PM,59.4,57.2,93,30.08,10.0,Calm,Calm,-,N/A,,Clear,0,2013-09-14 23:35:00
7:55 PM,57.4,56.1,96,30.09,10.0,Calm,Calm,-,N/A,,Clear,0,2013-09-14 23:55:00
8:15 PM,56.1,55.0,96,30.10,10.0,Calm,Calm,-,N/A,,Clear,0,2013-09-15 00:15:00
8:35 PM,54.9,54.3,98,30.11,10.0,Calm,Calm,-,N/A,,Clear,0,2013-09-15 00:35:00
8:55 PM,54.0,53.4,98,30.12,7.0,Calm,Calm,-,N/A,,Clear,0,2013-09-15 00:55:00
9:15 PM,53.6,53.1,98,30.13,7.0,Calm,Calm,-,N/A,,Clear,0,2013-09-15 01:15:00
9:35 PM,53.6,53.1,98,30.13,7.0,Calm,Calm,-,N/A,,Clear,0,2013-09-15 01:35:00
9:55 PM,52.2,51.8,99,30.14,7.0,Calm,Calm,-,N/A,,Clear,0,2013-09-15 01:55:00
10:15 PM,52.3,52.0,99,30.14,5.0,Calm,Calm,-,N/A,,Clear,0,2013-09-15 02:15:00
10:35 PM,50.9,50.7,99,30.14,7.0,Calm,Calm,-,N/A,,Clear,0,2013-09-15 02:35:00
10:55 PM,50.5,50.4,99,30.14,7.0,Calm,Calm,-,N/A,,Clear,0,2013-09-15 02:55:00
11:15 PM,50.2,49.8,99,30.15,5.0,Calm,Calm,-,N/A,,Clear,0,2013-09-15 03:15:00
11:35 PM,50.2,50.0,99,30.16,5.0,Calm,Calm,-,N/A,,Clear,0,2013-09-15 03:35:00
11:55 PM,50.2,50.0,99,30.16,5.0,Calm,Calm,-,N/A,,Clear,0,2013-09-15 03:55:00